Theta_e
353 350 348 347 349 349 350 350 350 352 355 355 354 353 353 352 351 349 349 352 352 350 350 349 355 354 353 353 354 353 352 350 350
353 352 349 349 349 351 353 352 352 353 356 355 354 353 353 354 353 352 352 353 353 353 353 353 353 351 351 351 352 353 353 350 350
354 353 352 350 353 352 350 349 355 350 350 351 354 354 353 353 353 352 350 351 352 352 352 354 354 351 351 351 351 352 354 351 349
353 354 354 356 353 352 354 353 352 348 353 351 351 354 353 353 352 350 351 350 349 351 352 354 353 354 353 352 352 352 353 352 352
358 358 356 354 352 354 353 352 347 348 344 347 347 352 350 353 350 351 351 350 350 349 352 353 354 354 354 354 353 353 354 354 351
354 353 354 354 354 355 355 351 349 348 347 344 343 343 346 351 351 351 352 351 351 350 350 353 352 353 352 352 352 354 355 355 354
348 348 348 349 351 352 352 352 352 350 349 346 344 347 347 346 346 345 344 344 348 350 350 351 352 352 353 353 353 350 354 354 354
347 348 347 344 345 345 348 352 351 350 348 348 349 349 348 347 342 342 344 344 345 347 351 351 351 351 352 353 352 352 352 354 354
350 348 347 344 339 339 339 343 352 351 351 349 348 350 349 348 348 349 348 347 343 348 349 350 352 352 354 353 351 346 349 350 353
347 346 344 342 340 337 335 333 338 344 349 349 350 348 348 347 346 346 346 346 344 346 346 347 349 350 350 346 346 345 346 346 346
346 343 341 340 336 331 328 328 331 334 339 340 340 339 340 341 340 340 340 342 340 338 341 345 345 346 342 333 328 336 339 340 343
343 340 339 338 333 329 324 325 326 326 328 329 329 331 330 333 335 336 336 337 341 340 341 343 344 343 339 332 325 331 336 340 345
340 338 336 334 329 324 322 320 323 323 320 321 321 321 322 325 324 326 329 332 333 334 337 340 340 336 334 326 323 324 329 332 332
336 335 334 330 326 322 319 318 317 316 315 314 314 314 315 315 318 319 321 322 321 327 330 335 335 334 330 326 323 320 316 322 323
334 333 330 330 328 325 320 318 316 314 314 313 311 312 312 312 313 315 318 320 321 322 324 328 330 330 328 325 321 314 312 308 310
332 331 329 326 324 322 320 321 321 315 312 311 310 310 310 311 313 314 316 318 318 318 319 321 323 322 322 321 319 317 312 307 306
331 329 328 326 326 324 322 319 318 317 317 316 315 315 315 312 312 313 314 314 316 316 316 317 317 317 317 317 316 312 307 306 307
330 329 327 326 324 324 322 321 320 318 316 315 315 315 314 314 314 312 315 314 312 312 311 310 310 315 315 315 315 308 302 300 301
329 328 326 325 324 324 322 321 319 317 315 315 315 314 314 313 313 313 313 312 308 307 304 303 306 305 308 306 304 301 299 299 301
328 327 326 325 325 323 322 321 319 316 315 314 314 313 312 312 309 312 311 311 311 309 300 298 298 298 299 303 299 298 299 301 305
Wind_Speed
22 23 14 12 22 21 20 23 22 21 20 16 15 14 10 9 8 8 6 5 6 5 7 9 14 10 8 8 7 6 5 7 8
19 18 24 22 21 29 9 12 15 19 18 17 16 14 12 9 8 9 3 2 5 7 9 5 5 12 9 9 10 8 5 8 6
23 22 18 15 19 20 20 19 10 15 20 9 11 13 13 12 11 10 7 7 7 10 10 5 5 7 8 8 9 10 8 12 11
17 20 18 11 12 20 22 21 25 25 21 10 8 10 10 13 12 12 10 8 9 9 9 6 3 4 7 7 9 10 11 13 6
6 10 7 10 11 21 23 24 23 20 23 19 9 4 7 7 12 13 10 10 9 10 8 7 5 9 9 11 11 13 13 12 12
6 8 7 7 7 7 20 22 23 19 18 28 22 14 12 10 9 9 12 7 8 11 11 9 9 9 9 11 13 12 12 13 12
9 6 7 6 4 4 11 14 15 16 16 18 20 18 13 14 9 12 11 13 12 13 12 12 13 12 11 10 10 12 12 13 12
11 11 10 8 5 4 2 6 14 17 18 16 14 14 14 14 14 14 15 16 15 12 11 11 14 13 12 11 12 10 13 11 11
11 10 11 11 7 7 4 3 5 15 18 19 18 15 13 10 10 10 10 13 10 10 8 7 6 9 9 7 9 7 10 11 7
9 8 9 9 8 7 6 5 5 9 10 13 14 11 10 11 10 6 6 6 6 9 5 5 4 4 4 2 5 6 9 11 12
9 9 9 9 11 10 8 9 10 11 13 13 14 13 14 14 12 9 6 3 3 3 4 3 3 4 6 5 5 2 1 4 6
10 10 8 11 11 11 11 13 13 14 14 16 18 13 11 10 8 6 4 3 3 3 6 5 5 4 6 4 4 3 1 2 5
11 15 15 13 15 14 14 12 13 16 17 16 14 15 12 8 7 7 5 3 2 0 1 2 3 6 4 3 4 5 3 3 5
12 15 18 17 15 15 15 14 14 16 14 16 13 12 10 9 8 5 4 3 2 4 1 4 5 4 3 2 3 5 6 4 4
13 15 14 13 15 16 15 13 14 15 13 9 10 8 8 8 7 5 3 4 3 2 2 2 3 3 5 2 1 5 9 6 4
13 14 14 15 16 15 11 9 9 11 11 10 8 7 6 5 4 3 2 3 3 2 3 4 6 6 6 3 0 3 13 10 6
13 14 15 15 14 14 12 10 8 8 9 8 6 5 3 2 4 3 1 2 2 5 4 6 7 6 6 6 5 2 6 7 8
14 15 14 14 14 13 11 11 10 9 8 9 8 6 6 5 6 6 5 2 3 3 1 1 2 2 4 5 5 3 8 6 5
12 13 14 13 12 12 13 11 10 8 7 7 6 6 7 7 7 7 8 6 4 3 1 3 5 4 3 1 5 6 5 4 6
9 12 13 13 13 12 13 12 11 10 9 8 8 7 4 5 7 7 7 8 9 6 1 2 2 2 4 6 5 2 1 5 6
Wind_Direction
204 181 225 205 168 172 188 180 173 172 170 179 182 185 200 208 207 219 231 220 271 253 259 200 161 172 193 214 194 224 223 234 228
206 222 178 200 204 162 135 162 182 165 168 178 181 189 192 208 213 238 284 234 251 265 248 298 178 164 186 208 212 221 232 249 234
188 201 208 190 155 168 163 169 156 162 179 176 175 200 195 199 212 220 231 234 246 267 289 163 183 152 186 208 222 220 233 254 225
186 194 197 187 152 164 155 168 171 161 159 163 192 202 232 200 203 211 212 223 229 245 281 323 304 193 213 218 212 222 230 251 269
77 62 150 156 169 145 156 174 179 174 173 176 170 199 223 223 224 230 233 216 225 235 241 261 252 220 231 226 229 229 225 235 247
139 111 111 106 146 185 157 173 186 194 196 192 201 227 227 221 211 226 230 254 252 244 232 241 242 222 216 219 228 232 234 227 234
134 142 140 136 177 189 189 187 187 192 197 199 194 191 193 210 210 227 232 229 239 248 251 230 241 239 229 224 228 233 232 222 227
158 155 157 141 143 97 158 184 191 196 197 196 193 200 212 223 224 243 248 234 222 228 242 234 240 243 243 231 230 227 226 232 229
170 160 141 150 132 134 130 182 204 202 193 197 199 206 199 204 212 230 226 225 217 201 201 212 229 238 240 248 250 256 230 225 253
144 154 138 143 139 130 102 82 131 120 159 187 186 184 176 168 156 161 143 152 182 148 172 175 197 183 176 178 226 299 274 263 256
137 138 136 136 128 118 101 102 114 126 148 142 138 135 148 159 150 151 159 181 186 173 124 134 164 171 106 71 22 350 285 282 267
150 141 136 124 125 117 111 110 116 119 113 111 104 95 111 128 132 139 162 171 211 215 230 219 211 166 117 77 18 28 333 351 307
123 124 121 116 118 114 108 111 123 119 109 105 102 104 93 91 102 112 109 113 124 195 209 220 185 113 114 110 39 2 332 304 352
118 111 118 123 116 113 111 114 115 102 106 106 108 108 107 104 98 103 101 81 84 110 83 162 157 154 124 196 85 8 8 329 355
130 127 132 125 123 121 126 120 118 115 111 114 114 119 110 108 112 107 110 105 102 100 147 130 181 194 225 191 98 18 357 356 1
145 146 136 138 132 128 125 123 133 128 137 133 128 125 107 98 103 92 101 148 140 185 185 232 221 207 236 238 277 348 343 346 13
153 152 155 149 146 141 142 147 135 139 140 143 137 123 146 134 113 145 134 239 187 233 204 211 217 223 230 238 237 261 320 330 338
163 164 167 161 163 159 155 154 151 150 158 157 164 174 181 186 190 197 185 78 75 15 244 251 11 220 284 266 231 207 298 315 329
176 172 175 174 177 171 166 165 163 163 170 178 188 193 197 203 207 200 214 179 150 197 107 216 239 206 167 288 262 282 302 343 31
186 185 188 193 192 183 175 177 179 183 183 186 197 218 221 220 234 225 210 235 210 180 149 104 106 130 187 208 290 330 109 115 108